Regional Weather Roundup
Issued by NWS

Home | Current Version | Previous Version | Graphics & Text | Print | Product List | Glossary On
Versions: 1 2 3 4 5 6 7 8 9 10 11 12 13 14 15 16 17 18 19 20 21 22 23 24 25 26 27 28 29 30 31 32 33 34 35 36 37 38 39 40 41 42 43 44 45 46 47 48 49 50
000
ASUS43 KIND 182209
RWRIN

WEATHER ROUNDUP FOR INDIANA
NATIONAL WEATHER SERVICE INDIANAPOLIS IN
600 PM EDT MON SEP 18 2017

NOTE: "FAIR" INDICATES FEW OR NO CLOUDS BELOW 12,000 FEET WITH NO
SIGNIFICANT WEATHER AND/OR OBSTRUCTIONS TO VISIBILITY.

* - STATION DOES NOT REPORT WEATHER SUCH AS PRECIPITATION OR FOG.

+ - STATION NOT QUALITY CONTROLLED BY THE NATIONAL WEATHER SERVICE.
    USE DATA WITH CAUTION...ESPECIALLY DEWPOINT AND RELATIVE
    HUMIDITY OBSERVATIONS.

INZ001>003-010>013-019-020-182300-
NORTHWEST INDIANA

CITY           SKY/WX    TMP DP  RH WIND       PRES   REMARKS
GARY /AIRPORT/ MOSUNNY   70  59  68 NE6       30.03F
KNOX *+        PTSUNNY   77  57  50 NE5       30.00F
LA PORTE +     CLOUDY    73  59  61 N8        30.02F
MICHIGAN CITY+ SUNNY     70  59  68 N7        30.03F
MONTICELLO +   MOSUNNY   80  65  60 E3        29.99F
RENSSELAER +   PTSUNNY   81  55  41 NE6       29.99F
VALPARAISO     MOSUNNY   75  59  57 NE6       30.01F

$$

LMZ046-743>745-182300-
SOUTHERN LAKE MICHIGAN

STATION/POSITION TIME  TEMP    WIND        PRES    WAVE
                       AIR SEA DIR/SP/G            HT
                 (UTC) (F)     (DEG/KT/KT) (MB)    (FT)
BURNS HARBOR     2140   68      40/ 10/ 12 1016.9F
MICHIGAN CITY    2140   66      20/  9/  9   N/A
5NW MICH CITY    2200   67 69   40/ 10/ 12   N/A     2

$$

INZ004-005-014>016-021>024-182300-
NORTH CENTRAL INDIANA

CITY           SKY/WX    TMP DP  RH WIND       PRES   REMARKS
ELKHART        MOSUNNY   77  46  33 CALM      30.02F
GOSHEN         SUNNY     80  55  42 NE8       30.01F
LOGANSPORT +   MOSUNNY   77  64  65 CALM      30.01F
PERU/GRISSOM   PTSUNNY   78  67  68 NE6       30.00F
ROCHESTER +    MOSUNNY   81  63  54 SE3       30.01F
SOUTH BEND     SUNNY     77  49  37 N7        30.02F
WARSAW +       PTSUNNY   73  64  73 E3        30.02F

$$

INZ006>009-017-018-025>027-182300-
NORTHEAST INDIANA

CITY           SKY/WX    TMP DP  RH WIND       PRES   REMARKS
AUBURN +       SUNNY     77  63  61 N5        30.03S
FORT WAYNE     PTSUNNY   80  65  59 N6        30.02F
HUNTINGTON +   MOSUNNY   78  64  61 CALM      30.01S
KENDALLVILLE + SUNNY     77  63  62 CALM      30.03F

$$

INZ028-029-035-036-043>045-051>053-182300-
WEST CENTRAL INDIANA

CITY           SKY/WX    TMP DP  RH WIND       PRES   REMARKS
GREENCASTLE +  MOSUNNY   79  68  69 CALM      29.98F
LAFAYETTE      CLOUDY    78  68  71 NE7       29.98F
TERRE HAUTE    PTSUNNY   79  66  64 S9        29.97F

$$

INZ030>032-037>040-046>048-054>057-064-065-182300-
CENTRAL INDIANA

CITY           SKY/WX    TMP DP  RH WIND       PRES   REMARKS
CP ATTERBURY + CLOUDY    79  68  69 S3        30.00S
COLUMBUS       SUNNY     81  64  57 SW6       30.00S
FRANKFORT +    PTSUNNY   80  69  69 CALM      30.02S
GREENWOOD *+   PTSUNNY   85  71  63 S6        29.99F
INDIANAPOLIS   PTSUNNY   83  68  60 CALM      29.97F
-EAGLE CREEK   MOSUNNY   82  67  60 SE5       29.98F
KOKOMO +       CLOUDY    81  68  64 NE7       30.01F
MT COMFORT *+    N/A    N/A N/A N/A MISG        N/A
SHELBYVILLE    MOSUNNY   81  67  62 S10       29.99S
ZIONSVILLE +   CLOUDY    76  70  81 CALM      30.00S

$$

INZ033-034-041-042-049-050-058-059-182300-
EAST CENTRAL INDIANA

CITY           SKY/WX    TMP DP  RH WIND       PRES   REMARKS
MUNCIE         SUNNY     84  65  52 NW6       30.00F
RICHMOND +     SUNNY     77  68  73 CALM      30.02F

$$

INZ060-061-067>069-081>083-085>088-182300-
SOUTHWEST INDIANA

CITY           SKY/WX    TMP DP  RH WIND       PRES   REMARKS
EVANSVILLE     LGT RAIN  73  69  87 S3        30.00S
HUNTINGBURG +    N/A    N/A N/A N/A MISG        N/A
WASHINGTON +   CLOUDY    80  65  59 S7        29.97S

$$

INZ062-063-066-070>080-084-089>092-182300-
SOUTH CENTRAL AND SOUTHEAST INDIANA

CITY           SKY/WX    TMP DP  RH WIND       PRES   REMARKS
BLOOMINGTON    CLOUDY    81  67  62 VRB5      29.99F
MADISON *+     PTSUNNY   79  68  69 CALM      30.02F
SEYMOUR +      MOSUNNY   82  66  57 S5        29.99F

$$





USA.gov is the U.S. government's official web portal to all federal, state and local government web resources and services.